Date String (YYYY-MM-DD hh:mm:ss) UTC,Instrument flags,absolute air pressure of the measurement (hPa),sample flow rate (lpm),inlet stack bypass flow (lpm),air temperature of the measurement (°C),ambient temperature measured by the external sensor (°C),aerosol sample conditioner tube jacket temperature (°C),OPC LED temperature (°C),internal box temperature (°C),relative humidity of the measurement (%),span deviation,mass concentration of particles derived from Lorenz-Mie calculation of OPC scattering (μg/m³),mass concentration of particles derived from Lorenz-Mie calculation of OPC scattering (μg/m³),mass concentration of particles derived from Lorenz-Mie calculation of OPC scattering (μg/m³)
DateTimeUTC,F1_M11,P_M11,Q1_M11,Q2_M11,T1_M11,T2_M11,T3_M11,T4_M11,T5_M11,U1_M11,ZSPAN_M11,X0_M11,X2_M11,X1_M11
2023-09-28 11:00:00,SystemResetWarning,0828.4,5.00,000.00,028.7,027.5,000.0,037.1,030.4,13.4,0000.0,0008.70,0004.61,0004.16
2023-09-28 11:01:00,SystemResetWarning,0828.4,5.01,000.00,028.7,027.5,000.0,037.1,030.5,13.3,0000.0,0009.78,0004.64,0004.17
2023-09-28 11:02:00,SystemResetWarning,0828.4,5.00,000.00,028.7,027.5,000.0,037.1,030.5,12.9,0000.0,0009.86,0004.68,0004.18
2023-09-28 11:03:00,SystemResetWarning,0828.3,5.00,000.00,028.8,027.6,000.0,037.1,030.5,13.1,0000.0,0010.50,0004.72,0004.19
2023-09-28 11:04:00,SystemResetWarning,0828.4,5.00,000.00,028.8,027.6,000.0,037.1,030.5,13.5,0000.0,0010.89,0004.75,0004.19
2023-09-28 11:05:00,SystemResetWarning,0828.4,4.99,000.00,028.8,027.6,000.0,037.1,030.5,13.1,0000.0,0010.97,0004.76,0004.19
2023-09-28 11:06:00,SystemResetWarning,0828.4,5.00,000.00,028.8,027.6,000.0,037.2,030.5,13.5,0000.0,0010.93,0004.75,0004.19
2023-09-28 11:07:00,SystemResetWarning,0828.4,5.00,000.00,028.8,027.6,000.0,037.2,030.5,13.4,0000.0,0010.74,0004.73,0004.19
2023-09-28 11:08:00,SystemResetWarning,0828.4,5.00,000.00,028.8,027.6,000.0,037.2,030.6,13.6,0000.0,0010.66,0004.70,0004.19
2023-09-28 11:09:00,SystemResetWarning,0828.5,5.00,000.00,028.9,027.6,000.0,037.2,030.6,13.8,0000.0,0010.60,0004.76,0004.20
2023-09-28 11:10:00,SystemResetWarning,0828.5,5.00,000.00,028.9,027.7,000.0,037.2,030.6,13.2,0000.0,0010.56,0004.76,0004.22
2023-09-28 11:11:00,SystemResetWarning,0828.4,5.00,000.00,028.9,027.7,000.0,037.3,030.6,13.2,0000.0,0010.40,0004.73,0004.22
2023-09-28 11:12:00,SystemResetWarning,0828.4,5.00,000.00,028.9,027.7,000.0,037.3,030.7,12.9,0000.0,0009.57,0004.73,0004.20
2023-09-28 11:13:00,SystemResetWarning,0828.4,5.00,000.00,028.9,027.7,000.0,037.3,030.7,12.7,0000.0,0009.46,0004.73,0004.20
2023-09-28 11:14:00,SystemResetWarning,0828.4,5.01,000.00,029.0,027.8,000.0,037.3,030.7,12.4,0000.0,0008.92,0004.71,0004.20
2023-09-28 11:15:00,SystemResetWarning,0828.4,4.99,000.00,029.0,027.8,000.0,037.3,030.7,12.3,0000.0,0008.44,0004.67,0004.20
2023-09-28 11:16:00,SystemResetWarning,0828.4,5.00,000.00,029.0,027.8,000.0,037.3,030.7,12.2,0000.0,0008.40,0004.68,0004.21
2023-09-28 11:17:00,SystemResetWarning,0828.4,5.00,000.00,029.0,027.8,000.0,037.4,030.8,12.2,0000.0,0008.46,0004.70,0004.23
2023-09-28 11:18:00,SystemResetWarning,0828.4,4.99,000.00,029.0,026.5,000.0,037.3,030.7,12.2,0000.0,0008.55,0004.74,0004.24
2023-09-28 11:19:00,SystemResetWarning,0828.4,5.01,000.00,028.9,024.8,000.0,037.3,030.5,12.2,0000.0,0008.25,0004.77,0004.25
2023-09-28 11:20:00,SystemResetWarning,0828.4,5.02,000.00,028.8,024.6,000.0,037.2,030.3,12.2,0000.0,0008.07,0004.75,0004.27
2023-09-28 11:21:00,SystemResetWarning,0828.4,4.99,000.00,028.7,024.8,000.0,037.2,030.1,12.1,0000.0,0008.20,0004.77,0004.27
2023-09-28 11:22:00,SystemResetWarning,0828.4,5.00,000.00,028.6,025.2,000.0,037.2,030.1,12.2,0000.0,0008.94,0004.81,0004.29
2023-09-28 11:23:00,SystemResetWarning,0828.4,5.00,000.00,028.6,025.5,000.0,037.2,030.1,12.1,0000.0,0008.94,0004.85,0004.34
2023-09-28 11:24:00,SystemResetWarning,0828.4,4.99,000.00,028.6,025.9,000.0,037.2,030.1,12.3,0000.0,0009.58,0004.94,0004.37
2023-09-28 11:25:00,SystemResetWarning,0828.4,5.00,000.00,028.6,026.2,000.0,037.2,030.1,12.7,0000.0,0010.34,0005.02,0004.41
2023-09-28 11:26:00,SystemResetWarning,0828.4,5.01,000.00,028.6,026.4,000.0,037.2,030.2,13.9,0000.0,0011.02,0005.12,0004.46
2023-09-28 11:27:00,SystemResetWarning,0828.5,5.01,000.00,028.6,026.6,000.0,037.2,030.2,13.7,0000.0,0011.37,0005.21,0004.49
2023-09-28 11:28:00,SystemResetWarning,0828.5,5.00,000.00,028.6,026.8,000.0,037.1,030.2,13.9,0000.0,0011.56,0005.28,0004.54
2023-09-28 11:29:00,SystemResetWarning,0828.5,5.00,000.00,028.6,026.9,000.0,037.1,030.2,14.3,0000.0,0011.67,0005.33,0004.58
2023-09-28 11:30:00,SystemResetWarning,0828.5,4.99,000.00,028.6,027.0,000.0,037.1,030.3,14.1,0000.0,0011.78,0005.37,0004.61
2023-09-28 11:31:00,SystemResetWarning,0828.4,5.01,000.00,028.6,027.1,000.0,037.1,030.3,14.0,0000.0,0011.85,0005.43,0004.64
2023-09-28 11:32:00,SystemResetWarning,0828.5,5.01,000.00,028.6,027.1,000.0,037.1,030.3,13.9,0000.0,0011.82,0005.45,0004.67
2023-09-28 11:33:00,SystemResetWarning,0828.5,5.00,000.00,028.6,027.2,000.0,037.1,030.3,14.0,0000.0,0011.24,0005.49,0004.69
2023-09-28 11:34:00,SystemResetWarning,0828.5,5.00,000.00,028.6,027.2,000.0,037.1,030.4,13.9,0000.0,0011.33,0005.57,0004.72
2023-09-28 11:35:00,SystemResetWarning,0828.5,5.00,000.00,028.7,027.3,000.0,037.1,030.4,13.8,0000.0,0011.29,0005.61,0004.75
2023-09-28 11:36:00,SystemResetWarning,0828.5,5.00,000.00,028.7,027.3,000.0,037.1,030.4,13.7,0000.0,0010.93,0005.63,0004.76
2023-09-28 11:37:00,SystemResetWarning,0828.5,5.00,000.00,028.7,027.4,000.0,037.1,030.4,13.8,0000.0,0010.36,0005.59,0004.76
2023-09-28 11:38:00,SystemResetWarning,0828.5,5.00,000.00,028.7,027.4,000.0,037.1,030.4,14.1,0000.0,0010.35,0005.56,0004.76
2023-09-28 11:39:00,SystemResetWarning,0828.4,5.01,000.00,028.7,027.4,000.0,037.1,030.4,14.2,0000.0,0010.40,0005.56,0004.76
2023-09-28 11:40:00,SystemResetWarning,0828.4,5.00,000.00,028.7,027.4,000.0,037.1,030.5,14.2,0000.0,0010.47,0005.60,0004.77
2023-09-28 11:41:00,SystemResetWarning,0828.5,5.00,000.00,028.8,027.5,000.0,037.1,030.5,14.7,0000.0,0010.44,0005.60,0004.77
2023-09-28 11:42:00,SystemResetWarning,0828.6,5.00,000.00,028.8,027.5,000.0,037.2,030.5,14.9,0000.0,0010.53,0005.62,0004.78
2023-09-28 11:43:00,SystemResetWarning,0828.5,5.00,000.00,028.8,027.5,000.0,037.2,030.5,14.6,0000.0,0010.92,0005.67,0004.80
2023-09-28 11:44:00,SystemResetWarning,0828.5,5.00,000.00,028.8,027.5,000.0,037.2,030.5,14.8,0000.0,0011.04,0005.71,0004.82
2023-09-28 11:45:00,SystemResetWarning,0828.5,5.00,000.00,028.8,027.5,000.0,037.2,030.5,15.2,0000.0,0011.43,0005.73,0004.83
2023-09-28 11:46:00,SystemResetWarning,0828.5,5.00,000.00,028.8,027.6,000.0,037.2,030.5,15.3,0000.0,0011.40,0005.71,0004.82
2023-09-28 11:47:00,SystemResetWarning,0828.5,5.00,000.00,028.8,027.6,000.0,037.2,030.6,15.4,0000.0,0011.32,0005.71,0004.83
2023-09-28 11:48:00,SystemResetWarning,0828.5,5.01,000.00,028.9,027.6,000.0,037.2,030.6,15.3,0000.0,0011.96,0005.72,0004.82
2023-09-28 11:49:00,SystemResetWarning,0828.6,5.01,000.00,028.9,027.6,000.0,037.2,030.6,15.4,0000.0,0012.14,0005.72,0004.81
2023-09-28 11:50:00,SystemResetWarning,0828.5,5.00,000.00,028.9,027.6,000.0,037.2,030.6,15.5,0000.0,0012.16,0005.68,0004.78
2023-09-28 11:51:00,SystemResetWarning,0828.5,4.99,000.00,028.9,027.6,000.0,037.3,030.6,15.5,0000.0,0012.03,0005.61,0004.75
2023-09-28 11:52:00,SystemResetWarning,0828.6,4.99,000.00,028.9,027.6,000.0,037.3,030.6,15.4,0000.0,0011.97,0005.58,0004.73
2023-09-28 11:53:00,SystemResetWarning,0828.6,5.01,000.00,028.9,027.6,000.0,037.3,030.6,15.2,0000.0,0011.67,0005.51,0004.69
2023-09-28 11:54:00,SystemResetWarning,0828.5,5.01,000.00,028.9,027.7,000.0,037.3,030.7,15.2,0000.0,0011.25,0005.45,0004.66
2023-09-28 11:55:00,SystemResetWarning,0828.5,5.00,000.00,029.0,027.7,000.0,037.3,030.7,15.2,0000.0,0011.04,0005.38,0004.63
2023-09-28 11:56:00,SystemResetWarning,0828.5,4.99,000.00,029.0,027.7,000.0,037.3,030.7,15.1,0000.0,0010.43,0005.27,0004.57
2023-09-28 11:57:00,SystemResetWarning,0828.5,4.99,000.00,029.0,027.7,000.0,037.3,030.7,15.2,0000.0,0010.05,0005.16,0004.53
2023-09-28 11:58:00,SystemResetWarning,0828.6,5.00,000.00,029.0,027.7,000.0,037.4,030.7,15.2,0000.0,0009.68,0005.07,0004.48
2023-09-28 11:59:00,SystemResetWarning,0828.6,5.00,000.00,029.0,027.7,000.0,037.4,030.7,15.2,0000.0,0009.09,0005.05,0004.47
